FW7322 Weather Reports


Display with metric or nautical units.
time (UTC)temp
F
wind
direction
speed
MPH
gust
MPH
rain 1hr
in
rain 24hr
in
rain mn
in
humidity
%
barometer
mb
20260506134024 59 92 0.0 2.0 0.06 0.12 0.12 90 1029.7
20260506133524 59 80 0.0 2.0 0.07 0.12 0.12 90 1029.6
20260506133040 59 85 0.0 2.0 0.08 0.12 0.12 90 1029.7
20260506132522 59 80 0.0 2.0 0.08 0.11 0.11 90 1029.6
20260506132025 59 97 0.0 2.0 0.08 0.11 0.11 90 1029.6
20260506131529 59 226 0.0 2.0 0.09 0.11 0.11 90 1029.8
20260506131022 59 86 0.0 1.0 0.08 0.10 0.10 89 1029.8
20260506130522 59 84 0.0 0.0 0.07 0.09 0.09 89 1029.9
20260506130022 59 84 0.0 0.0 0.07 0.08 0.08 89 1029.9
20260506125521 59 84 0.0 0.0 0.07 0.08 0.08 88 1030.0
20260506125021 59 84 0.0 0.0 0.06 0.07 0.07 88 1030.0
20260506124521 60 84 0.0 0.0 0.05 0.06 0.06 88 1030.0
20260506124020 60 84 0.0 0.0 0.04 0.05 0.05 87 1030.1
20260506123520 60 84 0.0 0.0 0.05 0.05 0.05 87 1030.2
20260506123020 60 84 0.0 3.0 0.04 0.04 0.04 86 1030.2
20260506122519 60 84 0.0 3.0 0.03 0.03 0.03 85 1030.2
20260506122018 60 89 0.0 3.0 0.03 0.03 0.03 85 1030.1
20260506121518 61 111 0.0 4.0 0.02 0.02 0.02 84 1030.1
20260506121021 61 80 1.0 4.0 0.02 0.02 0.02 84 1030.1
20260506120518 61 82 0.0 2.0 0.02 0.02 0.02 83 1030.0
20260506120032 61 80 0.0 3.0 0.01 0.01 0.01 83 1029.9
20260506115519 61 94 0.0 3.0 0.01 0.01 0.01 83 1029.8
20260506115016 61 93 0.0 0.0 0.01 0.01 0.01 82 1029.7
20260506114516 61 89 0.0 0.0 0.01 0.01 0.01 81 1029.7
20260506114020 61 89 0.0 0.0 0.01 0.01 0.01 80 1029.7
20260506113516 62 95 0.0 0.0 0.00 0.00 0.00 80 1029.6
20260506113016 62 95 0.0 0.0 0.00 0.00 0.00 79 1029.7
20260506112516 63 95 0.0 0.0 0.00 0.00 0.00 77 1029.7
20260506112015 63 94 0.0 0.0 0.00 0.00 0.00 76 1029.7
20260506111515 64 95 0.0 0.0 0.00 0.00 0.00 73 1029.7
20260506111014 64 95 0.0 0.0 0.00 0.00 0.00 71 1029.6
20260506110518 64 95 0.0 0.0 0.00 0.00 0.00 69 1029.5
20260506110013 65 95 0.0 0.0 0.00 0.00 0.00 68 1029.3
20260506105513 65 95 0.0 0.0 0.00 0.00 0.00 67 1029.3
20260506105012 65 94 0.0 0.0 0.00 0.00 0.00 66 1029.2
20260506104512 65 94 0.0 0.0 0.00 0.00 0.00 66 1029.1
20260506104012 65 96 0.0 0.0 0.00 0.00 0.00 66 1029.1
20260506103515 66 96 0.0 3.0 0.00 0.00 0.00 65 1029.0
20260506103012 66 86 0.0 3.0 0.00 0.00 0.00 65 1029.0
20260506102512 66 122 0.0 5.0 0.00 0.00 0.00 65 1029.0
20260506102012 66 86 1.0 9.0 0.00 0.00 0.00 65 1028.9
20260506101512 66 82 1.0 9.0 0.00 0.00 0.00 64 1028.8
20260506101016 66 92 0.0 1.0 0.00 0.00 0.00 64 1028.8
20260506100511 66 96 0.0 4.0 0.00 0.00 0.00 64 1028.5
20260506100016 66 109 0.0 4.0 0.00 0.00 0.00 63 1028.4
20260506095509 66 105 0.0 2.0 0.00 0.00 0.00 63 1028.6
20260506095009 66 90 0.0 2.0 0.00 0.00 0.00 64 1029.0
20260506094508 66 99 0.0 2.0 0.00 0.00 0.00 63 1028.8
20260506094007 66 117 0.0 2.0 0.00 0.00 0.00 62 1029.0
20260506093507 65 75 0.0 2.0 0.00 0.00 0.00 62 1028.8
20260506093009 65 124 0.0 1.0 0.00 0.00 0.00 62 1028.8
20260506092510 65 101 0.0 2.0 0.00 0.00 0.00 62 1028.8
20260506092007 66 101 0.0 3.0 0.00 0.00 0.00 61 1028.8
20260506091510 66 91 0.0 3.0 0.00 0.00 0.00 61 1028.9
20260506091007 66 95 0.0 0.0 0.00 0.00 0.00 60 1029.0
20260506090509 65 95 0.0 0.0 0.00 0.00 0.00 61 1028.9
20260506090007 65 98 0.0 0.0 0.00 0.00 0.00 60 1028.9
20260506085507 65 98 0.0 0.0 0.00 0.00 0.00 60 1028.8
20260506085005 65 96 0.0 0.0 0.00 0.00 0.00 60 1028.9
20260506084508 65 96 0.0 0.0 0.00 0.00 0.00 60 1029.1
20260506084005 65 96 0.0 0.0 0.00 0.00 0.00 60 1029.1
20260506083505 66 96 0.0 4.0 0.00 0.00 0.00 59 1029.0
20260506083007 66 96 0.0 4.0 0.00 0.00 0.00 59 1029.1
20260506082505 66 93 0.0 0.0 0.00 0.00 0.00 59 1029.2
20260506082003 65 93 0.0 0.0 0.00 0.00 0.00 59 1029.0
20260506081503 66 93 0.0 0.0 0.00 0.00 0.00 59 1029.0
20260506081003 66 93 0.0 0.0 0.00 0.00 0.00 58 1029.2
20260506080503 66 93 0.0 2.0 0.00 0.00 0.00 58 1029.2
20260506073100 66 90 0.0 0.0 0.00 0.00 0.00 59 1029.1
20260506072600 66 105 0.0 3.0 0.00 0.00 0.00 59 1029.1
20260506072100 66 79 0.0 3.0 0.00 0.00 0.00 59 1029.2
20260506071558 65 84 0.0 0.0 0.00 0.00 0.00 58 1029.2
20260506071058 65 89 0.0 2.0 0.00 0.00 0.00 58 1029.2
20260506070558 65 89 0.0 2.0 0.00 0.00 0.00 58 1029.2
20260506062050 64 83 0.0 0.0 0.00 0.00 0.00 62 1029.8
20260506061554 64 82 0.0 0.0 0.00 0.00 0.00 62 1029.9
20260506061050 63 94 0.0 0.0 0.00 0.00 0.00 62 1030.0
20260506060546 63 86 0.0 0.0 0.00 0.00 0.00 63 1030.0
20260506051040 60 84 0.0 0.0 0.00 0.00 0.00 71 1030.4
20260506050536 60 84 0.0 0.0 0.00 0.00 0.00 71 1030.5
20260506045035 59 81 0.0 1.0 0.00 0.00 0.00 76 1030.4
20260506044533 58 81 0.0 1.0 0.00 0.00 0.00 78 1030.4
20260506044032 58 81 0.0 1.0 0.00 0.00 0.00 79 1030.4
20260506043531 58 81 0.0 2.0 0.00 0.00 0.00 80 1030.3
20260506043033 58 81 0.0 2.0 0.00 0.00 0.00 81 1030.3
20260506042531 58 91 0.0 0.0 0.00 0.00 0.00 80 1030.3
20260506042029 58 91 0.0 0.0 0.00 0.00 0.00 79 1030.3
20260506041528 58 91 0.0 0.0 0.00 0.00 0.00 79 1030.3
20260506041026 59 91 0.0 0.0 0.00 0.00 0.00 78 1030.3
20260506040526 59 91 0.0 0.0 0.00 0.00 0.00 78 1030.4
20260506040035 59 91 0.0 0.0 0.00 0.00 0.00 78 1030.4
20260506035524 59 91 0.0 0.0 0.00 0.00 0.00 79 1030.4
20260506035026 58 91 0.0 0.0 0.00 0.00 0.00 79 1030.5
20260506034528 58 91 0.0 0.0 0.00 0.00 0.00 79 1030.4
20260506034023 58 91 0.0 0.0 0.00 0.00 0.00 79 1030.4
20260506033524 58 91 0.0 0.0 0.00 0.00 0.00 78 1030.4
20260506033024 59 91 0.0 0.0 0.00 0.00 0.00 78 1030.5
20260506032525 59 91 0.0 0.0 0.00 0.00 0.00 78 1030.4
20260506032024 59 91 0.0 0.0 0.00 0.00 0.00 77 1030.4
20260506031524 59 91 0.0 0.0 0.00 0.00 0.00 76 1030.5
20260506031024 60 91 0.0 0.0 0.00 0.00 0.00 75 1030.5
20260506030525 60 91 0.0 0.0 0.00 0.00 0.00 74 1030.5
20260506030022 60 91 0.0 0.0 0.00 0.00 0.00 74 1030.4
20260506025522 60 91 0.0 0.0 0.00 0.00 0.00 74 1030.4
20260506025023 61 91 0.0 0.0 0.00 0.00 0.00 73 1030.4
20260506024528 61 91 0.0 0.0 0.00 0.00 0.00 73 1030.5
20260506024025 61 91 0.0 0.0 0.00 0.00 0.00 72 1030.5
20260506023521 61 91 0.0 0.0 0.00 0.00 0.00 71 1030.3
20260506023028 62 91 0.0 0.0 0.00 0.00 0.00 71 1030.5
20260506022521 63 91 0.0 0.0 0.00 0.00 0.00 69 1030.5
20260506022022 63 91 0.0 0.0 0.00 0.00 0.00 70 1030.6
20260506021531 63 91 0.0 0.0 0.00 0.00 0.00 69 1030.6
20260506021023 63 91 0.0 0.0 0.00 0.00 0.00 69 1030.6
20260506020521 63 91 0.0 0.0 0.00 0.00 0.00 69 1030.6
20260506020021 64 91 0.0 0.0 0.00 0.00 0.00 68 1030.5
20260506015521 64 91 0.0 0.0 0.00 0.00 0.00 67 1030.4
20260506015026 64 91 0.0 0.0 0.00 0.00 0.00 67 1030.5
20260506014521 64 91 0.0 0.0 0.00 0.00 0.00 66 1030.4
20260506014020 65 91 0.0 0.0 0.00 0.00 0.00 66 1030.5
20260506013520 65 91 0.0 0.0 0.00 0.00 0.00 66 1030.4
20260506013020 65 91 0.0 0.0 0.00 0.00 0.00 66 1030.4
20260506012520 65 91 0.0 0.0 0.00 0.00 0.00 66 1030.2
20260506012021 65 91 0.0 0.0 0.00 0.00 0.00 65 1030.4
20260506011521 66 91 0.0 0.0 0.00 0.00 0.00 65 1030.3
20260506011020 66 91 0.0 0.0 0.00 0.00 0.00 64 1030.2
20260506010520 67 91 0.0 0.0 0.00 0.00 0.00 63 1030.1
20260506010038 67 91 0.0 0.0 0.00 0.00 0.00 63 1030.0
20260506005520 67 91 0.0 0.0 0.00 0.00 0.00 62 1030.0
20260506005018 67 91 0.0 0.0 0.00 0.00 0.00 62 1030.0
20260506004518 68 91 0.0 0.0 0.00 0.00 0.00 60 1029.9
20260506004019 68 91 0.0 0.0 0.00 0.00 0.00 59 1029.8
20260506003518 68 91 0.0 0.0 0.00 0.00 0.00 58 1029.9
20260506003018 69 91 0.0 0.0 0.00 0.00 0.00 58 1029.7
20260506002519 69 91 0.0 0.0 0.00 0.00 0.00 57 1029.7
20260506002019 70 91 0.0 0.0 0.00 0.00 0.00 56 1029.6
20260506001518 70 91 0.0 0.0 0.00 0.00 0.00 56 1029.6
20260506001018 71 91 0.0 0.0 0.00 0.00 0.00 56 1029.6
20260506000518 72 91 0.0 2.0 0.00 0.00 0.00 53 1029.5
20260506000016 72 91 0.0 5.0 0.00 0.00 0.00 52 1029.4
20260505235516 73 94 1.0 5.0 0.00 0.00 0.00 51 1029.4
20260505235016 73 91 0.0 5.0 0.00 0.00 0.00 51 1029.3
20260505234531 73 70 0.0 8.0 0.00 0.00 0.00 51 1029.3
20260505234017 74 77 2.0 8.0 0.00 0.00 0.00 49 1029.2
20260505233515 74 78 2.0 7.0 0.00 0.00 0.00 48 1029.2
20260505233015 75 94 2.0 6.0 0.00 0.00 0.00 48 1029.2
20260505232515 75 81 1.0 6.0 0.00 0.00 0.00 49 1029.1
20260505232116 75 98 2.0 5.0 0.00 0.00 0.00 46 1029.1
20260505231515 75 89 0.0 4.0 0.00 0.00 0.00 48 1029.0
20260505231014 75 87 1.0 6.0 0.00 0.00 0.00 46 1029.0
20260505230514 75 90 0.0 6.0 0.00 0.00 0.00 47 1028.8
20260505230013 75 82 0.0 4.0 0.00 0.00 0.00 48 1028.8
20260505225512 75 217 0.0 4.0 0.00 0.00 0.00 47 1028.7
20260505225011 75 87 0.0 3.0 0.00 0.00 0.00 46 1028.7
20260505224512 76 78 0.0 2.0 0.00 0.00 0.00 47 1028.7
20260505224011 76 93 0.0 2.0 0.00 0.00 0.00 46 1028.7
20260505223519 76 105 0.0 6.0 0.00 0.00 0.00 47 1028.7
20260505223011 76 86 0.0 6.0 0.00 0.00 0.00 46 1028.7
20260505222513 76 80 1.0 8.0 0.00 0.00 0.00 46 1028.8
20260505222011 76 101 2.0 8.0 0.00 0.00 0.00 45 1028.8
20260505221511 76 91 1.0 8.0 0.00 0.00 0.00 46 1028.8
20260505221016 76 94 2.0 6.0 0.00 0.00 0.00 45 1028.8
20260505220510 76 198 1.0 6.0 0.00 0.00 0.00 44 1028.7
20260505220010 76 62 1.0 7.0 0.00 0.00 0.00 45 1028.6
20260505215509 77 249 1.0 10.0 0.00 0.00 0.00 44 1028.5
20260505215011 77 100 1.0 10.0 0.00 0.00 0.00 46 1028.5
20260505214510 77 132 1.0 6.0 0.00 0.00 0.00 44 1028.4
20260505214009 77 257 0.0 5.0 0.00 0.00 0.00 44 1028.5
20260505213508 77 82 1.0 6.0 0.00 0.00 0.00 43 1028.3
20260505213008 77 74 2.0 10.0 0.00 0.00 0.00 43 1028.3
20260505212511 77 103 2.0 10.0 0.00 0.00 0.00 42 1028.3
20260505212009 77 234 2.0 6.0 0.00 0.00 0.00 43 1028.3
20260505211508 77 84 1.0 5.0 0.00 0.00 0.00 43 1028.3
20260505211008 77 89 1.0 4.0 0.00 0.00 0.00 42 1028.5
20260505210508 77 74 1.0 8.0 0.00 0.00 0.00 43 1028.4
20260505210007 77 98 0.0 13.0 0.00 0.00 0.00 42 1028.4
20260505205507 78 90 1.0 13.0 0.00 0.00 0.00 41 1028.3
20260505205007 78 106 3.0 11.0 0.00 0.00 0.00 41 1028.2
20260505204506 78 89 3.0 11.0 0.00 0.00 0.00 42 1028.3
20260505204012 78 86 3.0 12.0 0.00 0.00 0.00 40 1028.3
20260505203506 78 85 1.0 12.0 0.00 0.00 0.00 40 1028.2
20260505203015 78 56 4.0 9.0 0.00 0.00 0.00 41 1028.2
20260505202506 78 86 2.0 10.0 0.00 0.00 0.00 42 1028.2
20260505202006 78 104 3.0 11.0 0.00 0.00 0.00 41 1028.2
20260505201505 78 103 5.0 14.0 0.00 0.00 0.00 40 1028.2
20260505201005 78 86 5.0 14.0 0.00 0.00 0.00 41 1028.3
20260505200505 78 343 2.0 12.0 0.00 0.00 0.00 42 1028.3
20260505200004 79 67 4.0 14.0 0.00 0.00 0.00 42 1028.3
20260505195506 79 91 2.0 14.0 0.00 0.00 0.00 40 1028.3
20260505195003 79 88 2.0 11.0 0.00 0.00 0.00 41 1028.4
20260505194503 80 82 3.0 10.0 0.00 0.00 0.00 40 1028.3
20260505194004 80 63 3.0 10.0 0.00 0.00 0.00 40 1028.3
20260505193502 80 69 3.0 13.0 0.00 0.00 0.00 42 1028.3
20260505193002 80 101 4.0 13.0 0.00 0.00 0.00 40 1028.3
20260505192503 80 111 3.0 12.0 0.00 0.00 0.00 42 1028.4
20260505192101 80 144 4.0 12.0 0.00 0.00 0.00 40 1028.3
20260505191600 81 110 2.0 10.0 0.00 0.00 0.00 43 1028.5
20260505191059 80 269 3.0 10.0 0.00 0.00 0.00 43 1028.4
20260505190602 80 33 2.0 14.0 0.00 0.00 0.00 44 1028.6
20260505190057 80 258 3.0 15.0 0.00 0.00 0.00 44 1028.8
20260505185557 80 70 4.0 15.0 0.00 0.00 0.00 43 1028.8
20260505185056 80 84 4.0 16.0 0.00 0.00 0.00 47 1029.1
20260505184556 80 243 3.0 19.0 0.00 0.00 0.00 46 1029.1
20260505184055 80 282 4.0 19.0 0.00 0.00 0.00 46 1029.2
20260505183557 80 274 3.0 17.0 0.00 0.00 0.00 47 1029.3
20260505183055 80 102 5.0 13.0 0.00 0.00 0.00 45 1029.4
20260505182553 80 105 3.0 10.0 0.00 0.00 0.00 44 1029.6
20260505182052 79 86 2.0 12.0 0.00 0.00 0.00 50 1029.6
20260505181552 79 251 3.0 12.0 0.00 0.00 0.00 46 1029.7
20260505181051 78 96 3.0 13.0 0.00 0.00 0.00 46 1029.9
20260505180555 78 237 3.0 13.0 0.00 0.00 0.00 47 1029.9
20260505180105 79 86 4.0 11.0 0.00 0.00 0.00 46 1030.0
20260505175550 79 97 2.0 11.0 0.00 0.00 0.00 46 1030.0
20260505175050 78 49 2.0 11.0 0.00 0.00 0.00 45 1029.9
20260505174601 79 94 2.0 10.0 0.00 0.00 0.00 45 1029.9
20260505174050 79 77 4.0 11.0 0.00 0.00 0.00 47 1030.0
20260505173549 80 188 3.0 17.0 0.00 0.00 0.00 45 1029.9
20260505173048 79 82 3.0 17.0 0.00 0.00 0.00 46 1030.0
20260505172547 79 86 4.0 13.0 0.00 0.00 0.00 48 1029.8
20260505172046 79 84 2.0 10.0 0.00 0.00 0.00 46 1030.0
20260505171546 79 238 4.0 10.0 0.00 0.00 0.00 47 1030.1
20260505171044 78 254 5.0 12.0 0.00 0.00 0.00 48 1029.9
20260505170547 78 220 6.0 12.0 0.00 0.00 0.00 48 1030.0
20260505170043 78 103 3.0 10.0 0.00 0.00 0.00 50 1030.2
20260505165542 78 71 4.0 10.0 0.00 0.00 0.00 50 1030.4
20260505165041 77 70 3.0 12.0 0.00 0.00 0.00 50 1030.5
20260505164542 78 115 3.0 12.0 0.00 0.00 0.00 48 1030.5
20260505164040 78 81 4.0 10.0 0.00 0.00 0.00 53 1030.8
20260505163541 78 112 4.0 11.0 0.00 0.00 0.00 50 1030.7
20260505163039 78 63 3.0 11.0 0.00 0.00 0.00 50 1030.9
20260505162539 78 77 3.0 11.0 0.00 0.00 0.00 48 1030.9
20260505162038 78 89 5.0 12.0 0.00 0.00 0.00 49 1030.9
20260505161539 78 110 2.0 12.0 0.00 0.00 0.00 50 1031.0
20260505161038 78 240 1.0 8.0 0.00 0.00 0.00 51 1031.1
20260505160537 78 108 1.0 11.0 0.00 0.00 0.00 51 1031.1
20260505153033 76 113 4.0 12.0 0.00 0.00 0.00 52 1031.5
20260505152535 76 275 4.0 12.0 0.00 0.00 0.00 50 1031.3
20260505152031 76 84 4.0 11.0 0.00 0.00 0.00 50 1031.5
20260505151533 76 77 3.0 11.0 0.00 0.00 0.00 52 1031.4
20260505151030 75 88 2.0 19.0 0.00 0.00 0.00 53 1031.5
20260505150531 75 68 5.0 19.0 0.00 0.00 0.00 51 1031.5
20260505140521 74 94 2.0 8.0 0.00 0.00 0.00 56 1031.5